Погода в Тарлаге

Россия / Республика Тыва     52°04′01″N   93°24′34″E
темп.,
°C
ветер,
м/с
пор.,
м/с
влажн.,
%
обл.,
%
осадки,
мм/ч
давл.,
гПа
погр.,
м
31 июля, сб
сб3101:00+12зсз3690100 0.0 1011163
04:00+11з4787100 0.1 1013401
07:00+10зсз2695100 4.4 1016371
10:00+10зсз1294100 4.0 1016225
13:00+11сз1292100 6.4 1016279
16:00+11сз1187100 0.4 1016314
19:00+12зсз118898 0.4 1015120
22:00+11зюз1190100 0.1 101611
1 августа, вс
вс101:00+11з0089100 0.4 101511
04:00+10зсз1192100 0.0 101415
07:00+11зсз129162 0.1 1014103
10:00+15ссз365899 0.1 10121385
13:00+19ссв3644100 0.1 10092034
16:00+19св4745100 0.0 10081492
19:00+17ссв375947 0.0 1009468
22:00+11зсз117657 0.0 101013
2 августа, пн
пн201:00+9з328588 0.0 101135
04:00+8з229093 0.0 101129
07:00+11зсз2378100 0.0 1011128
10:00+17ссз474848 0.0 10091511
13:00+20ссз464096 0.0 10082362
16:00+20ссз454280 0.0 10081696
19:00+18ссз25560 0.0 1009218
22:00+11юз01740 0.0 101110
3 августа, вт
вт301:00+10ююв01791 0.0 101110
04:00+8в01875 0.0 101210
07:00+11всв11783 0.0 1012112
10:00+17всв12574 0.0 1010708
13:00+21всв22466 0.0 10081152
16:00+22всв114580 0.0 1006997
19:00+21св12585 0.0 100541
22:00+14в116979 0.0 100611
4 августа, ср
ср401:00+13зюз3583100 0.8 1007128
04:00+12зсз2297100 1.6 100879
07:00+13зсз129238 3.0 1009128
10:00+18ссз12613 0.0 1008912
13:00+21с234537 0.5 10061831
16:00+21ссв3343100 0.0 10051624
19:00+18сз2363100 0.1 100567
22:00+13зсз22755 0.0 100717